Location: Prostejov
(49.4670°N, 17.1170°E)
Time: 12:50:42
(UTC+01:00)

ISS - Visible Passes

Search period start: 15 February 2026 00:00
Search period end: 25 February 2026 00:00
Orbit: 413 x 428 km, 51.6° (Epoch: 14 February)

Date Brightness Start Highest point End Pass type
(mag) Time Alt. Az. Time Alt. Az. Time Alt. Az.
15 Feb -2.3 05:36:22 11° SSW 05:39:18 34° SSE 05:42:22 10° E visible
16 Feb -1.8 04:51:33 21° SSE 04:52:21 23° SE 04:55:05 10° E visible
16 Feb -3.8 06:25:32 10° WSW 06:28:53 90° NNE 06:32:14 10° ENE visible
17 Feb -0.8 04:06:35 14° ESE 04:06:35 14° ESE 04:07:35 10° E visible
17 Feb -3.6 05:39:35 19° WSW 05:41:48 69° SSE 05:45:08 10° ENE visible
18 Feb -3.2 04:54:30 48° SSE 04:54:44 50° SSE 04:57:59 10° ENE visible
19 Feb -1.2 04:09:20 21° E 04:09:20 21° E 04:10:47 10° E visible
19 Feb -3.8 05:42:19 21° W 05:44:23 72° NNW 05:47:44 10° ENE visible
20 Feb -4.0 04:57:04 80° W 04:57:13 88° NNW 05:00:35 10° ENE visible
21 Feb -1.6 04:11:45 27° ENE 04:11:45 27° ENE 04:13:25 10° ENE visible
21 Feb -3.5 05:44:44 18° W 05:47:00 57° N 05:50:19 10° ENE visible
22 Feb -3.7 04:59:22 55° NW 04:59:47 62° N 05:03:06 10° ENE visible
23 Feb -1.9 04:13:59 31° ENE 04:13:59 31° ENE 04:15:54 10° ENE visible
23 Feb -3.5 05:46:57 15° WNW 05:49:35 61° N 05:52:54 10° E visible
24 Feb -0.2 03:28:34 11° ENE 03:28:34 11° ENE 03:28:40 10° ENE visible
24 Feb -3.4 05:01:33 43° NW 05:02:19 57° N 05:05:37 10° E visible
